User: anonymous   Login
Location: Godiavel Galaoual
(15.2485°N, 12.6604°W)
Time: 01:21:54
(UTC+00:00)
Language:

MOZHAYETS 4 - Orbit

View from above orbital plane
View from above orbital plane
View from above satellite
View from above satellite

Ground track
Ground track

The orbit data is extracted from the following two-line orbital elements,

1 27939U 03042A   21206.85082906  .00000173  00000-0  39630-4 0  9994
2 27939  98.1468 343.6868 0013571 153.8820 206.3071 14.67003523953153
Epoch (UTC): 25 July 2021 20:25:11
Eccentricity: 0.0013571
inclination: 98.1468°
perigee height: 661 km
apogee height: 680 km
right ascension of ascending node: 343.6868°
argument of perigee: 153.8820°
revolutions per day: 14.67003523
mean anomaly at epoch: 206.3071°
orbit number at epoch: 95315

The dashed part of the orbit path shows where the satellite is in the earth's shadow,  

DLR